#timestamp,LO_Frequency,Hit 
1499407215.8,286047060.4,N
1499407235.7,286047057.3,N
1499407255.5,286047056.6,N
1499407275.3,286047054.6,N
1499407295.2,286047054.2,N
1499407315.0,286047057.0,N
1499407315.9,286047057.0,N
1499407335.7,286047058.8,N
1499407355.6,286047058.6,N
1499407375.4,286047055.9,N
1499407395.2,286047057.2,N
1499407415.1,286047056.5,N
1499407416.0,286047056.5,N
1499407435.8,286047058.4,N
1499407455.6,286047055.9,N
1499407475.5,286047058.2,N
1499407495.3,286047060.2,N
1499407515.1,286047059.2,N
1499407535.9,286047059.2,N
1499407555.7,286047063.5,N
1499407575.5,286047061.9,N
1499407595.4,286047063.0,N
1499407615.2,286047060.6,N
1499407635.0,286047063.5,N
1499407635.9,286047063.5,N
1499407655.8,286047060.5,N
1499407675.6,286047063.2,N
1499407695.4,286047063.2,N
1499407715.2,286047065.1,N
1499407735.1,286047062.8,N
1499407736.0,286047062.8,N
1499407755.8,286047062.9,N
1499407775.6,286047061.0,N
1499407795.5,286047059.7,N
1499407815.3,286047060.2,N
1499407835.1,286047060.0,N
1499407855.9,286047058.4,N
1499407875.7,286047056.2,N
1499407895.5,286047058.6,N
1499407915.4,286047060.2,N
1499407935.2,286047059.7,N
1499407955.0,286047060.4,N
1499407955.9,286047060.4,N
1499407975.8,286047058.4,N
1499407995.6,286047058.3,N
1499408015.4,286047057.4,N
1499408035.3,286047060.2,N
1499408055.1,286047059.3,N
1499408056.0,286047059.3,N
1499408075.8,286047059.5,N
1499408095.7,286047059.3,N
1499408115.5,286047059.3,N
1499408135.3,286047059.0,N
1499408155.1,286047058.9,N
1499408175.9,286047057.5,N
1499408195.7,286047059.0,N
1499408215.5,286047059.6,N
1499408235.4,286047059.7,N
1499408255.2,286047059.7,N
1499408275.0,286047061.7,N
1499408275.9,286047061.7,N
1499408295.8,286047063.5,N
1499408315.6,286047063.6,N
1499408335.4,286047060.6,N
1499408355.3,286047059.3,N
1499408375.1,286047059.7,N
1499408376.0,286047059.7,N
1499408395.8,286047059.2,N
1499408415.7,286047062.0,N
1499408435.5,286047059.7,N
1499408455.3,286047060.3,N
1499408475.2,286047059.5,N
1499408495.9,286047059.6,N
1499408515.7,286047062.0,N
1499408535.6,286047061.3,N
1499408555.4,286047061.7,N
1499408575.2,286047059.6,N
1499408595.0,286047059.4,N
1499408596.0,286047059.4,N
1499408615.8,286047060.5,N
1499408635.6,286047063.0,N
1499408655.4,286047062.9,N
1499408675.3,286047063.3,N
1499408695.1,286047063.6,N
1499408715.8,286047061.6,N
1499408735.7,286047061.5,N
1499408755.5,286047059.4,N
1499408775.3,286047061.7,N
1499408795.2,286047059.4,N
1499408815.9,286047059.4,N
1499408835.7,286047059.9,N
1499408855.6,286047059.6,N
1499408875.4,286047059.5,N
1499408895.2,286047059.9,N
1499408915.0,286047059.7,N
1499408916.0,286047059.7,N
1499408935.8,286047059.7,N
1499408955.6,286047057.8,N
1499408975.4,286047061.5,N
1499408995.3,286047060.5,N
1499409015.1,286047064.6,N
1499409035.8,286047063.9,N
1499409055.7,286047062.5,N
1499409075.5,286047062.4,N
1499409095.3,286047062.1,N
1499409115.2,286047066.8,N
1499409135.9,286047062.3,N
1499409155.7,286047064.4,N
1499409175.6,286047068.0,N
1499409195.4,286047066.1,N
1499409215.2,286047064.4,N
1499409235.1,286047062.5,N
1499409236.0,286047062.5,N
1499409255.8,286047063.8,N
1499409275.6,286047066.6,N
1499409295.4,286047066.4,N
1499409315.3,286047065.1,N
1499409335.1,286047064.0,N
1499409355.8,286047065.6,N
1499409375.7,286047064.1,N
1499409395.5,286047064.8,N
1499409415.3,286047066.2,N
1499409435.2,286047065.9,N
1499409455.9,286047065.0,N
1499409475.7,286047066.2,N
1499409495.6,286047067.5,N
1499409515.4,286047068.4,N
1499409535.2,286047068.2,N
1499409555.0,286047066.0,N
1499409556.0,286047066.0,N
1499409575.8,286047064.2,N
1499409595.6,286047064.8,N
1499409615.4,286047062.2,N
1499409635.3,286047066.4,N
1499409655.1,286047066.3,N
1499409675.8,286047066.5,N
1499409695.7,286047066.7,N
1499409715.5,286047064.8,N
1499409735.3,286047065.0,N
1499409755.2,286047064.2,N
1499409775.9,286047064.3,N
1499409795.7,286047065.7,N
1499409815.6,286047068.3,N
1499409835.4,286047068.3,N
1499409855.2,286047066.0,N
1499409875.0,286047064.9,N
1499409876.0,286047064.9,N
1499409895.8,286047062.6,N
1499409915.6,286047064.0,N
1499409935.4,286047064.3,N
1499409955.3,286047064.1,N
1499409975.1,286047068.0,N
1499409995.8,286047064.1,N
1499410015.7,286047066.5,N
1499410035.5,286047065.8,N
1499410055.3,286047067.3,N
1499410075.2,286047067.7,N
1499410095.9,286047068.3,N
1499410115.7,286047065.7,N
1499410135.6,286047064.6,N
1499410155.4,286047066.4,N
1499410175.2,286047064.9,N
1499410195.0,286047062.9,N
1499410196.0,286047062.9,N
1499410215.8,286047064.7,N
1499410235.6,286047065.2,N
1499410255.4,286047062.7,N
1499410275.3,286047062.8,N
1499410295.1,286047062.8,N
1499410315.8,286047062.7,N
1499410335.7,286047059.9,N
1499410355.5,286047058.0,N
1499410375.3,286047060.2,N
1499410395.2,286047061.6,N
1499410415.9,286047062.9,N
1499410435.7,286047062.7,N
1499410455.6,286047063.3,N
1499410475.4,286047062.9,N
1499410495.2,286047063.0,N
1499410515.0,286047063.2,N
1499410516.0,286047063.2,N
1499410535.8,286047064.8,N
1499410555.6,286047064.0,N
1499410575.4,286047063.7,N
1499410595.3,286047066.1,N
1499410615.1,286047068.3,N
1499410635.8,286047066.0,N
1499410655.7,286047062.3,N
1499410675.5,286047062.8,N
1499410695.3,286047062.5,N
1499410715.2,286047063.6,N
1499410735.9,286047062.6,N
1499410755.7,286047064.7,N
1499410775.6,286047065.2,N
1499410795.4,286047062.4,N
